Location: Derby
(52.9213°N, 1.4761°W)
Time: 02:13:11
(UTC+01:00)

Vanguard 2 Rocket - Pass Details

Date: 18 May 2025
Orbit: 554 x 3293 km, 32.9° (Epoch: 12 June)

Event Time Altitude Azimuth Distance (km) Brightness Sun altitude
Rises 01:42:39 0° 236° (SW) 6,680 10.9 -17.0°
Reaches altitude 10° 01:48:40 10° 225° (SW) 5,235 10.3 -16.8°
Enters shadow 01:49:37 12° 223° (SW) 5,011 10.1 -16.8°
Exits shadow 01:52:47 17° 213° (SSW) 4,294 9.7 -16.7°
Maximum altitude 01:58:53 24° 180° (S) 3,274 9.1 -16.5°
Drops below altitude 10° 02:05:57 10° 130° (SE) 3,501 9.6 -16.2°
Sets 02:09:00 0° 117° (ESE) 4,116 10.2 -16.1°
